�������l�o���
Date,Time,MP-1(��Sv/h),MP-2(��Sv/h),MP-3(��Sv/h),MP-4(��Sv/h),MP-5(��Sv/h),MP-6(��Sv/h),MP-7(��Sv/h),MP-8(��Sv/h),����,����(m/s),���J
2022/11/12,00:00,0.590,0.856,0.533,1.076,0.756,0.338,0.597,0.563,�k�k��,1.2,��
2022/11/12,00:10,0.591,0.854,0.533,1.074,0.754,0.340,0.597,0.564,�k��,1.1,��
2022/11/12,00:20,0.590,0.856,0.534,1.075,0.756,0.340,0.597,0.564,�k��,0.6,��
2022/11/12,00:30,0.591,0.855,0.533,1.075,0.757,0.341,0.596,0.565,�k��,1.1,��
2022/11/12,00:40,0.591,0.855,0.532,1.072,0.756,0.339,0.597,0.564,-,CALM,��
2022/11/12,00:50,0.589,0.855,0.532,1.075,0.756,0.339,0.598,0.564,�k��,1.1,��
2022/11/12,01:00,0.591,0.854,0.535,1.074,0.757,0.339,0.596,0.564,�k��,0.8,��
2022/11/12,01:10,0.590,0.854,0.533,1.074,0.757,0.340,0.599,0.565,���k��,0.6,��
2022/11/12,01:20,0.590,0.854,0.534,1.075,0.756,0.340,0.597,0.563,���쐼,0.8,��
2022/11/12,01:30,0.591,0.857,0.533,1.077,0.757,0.339,0.597,0.562,���쐼,0.8,��
2022/11/12,01:40,0.589,0.857,0.533,1.076,0.754,0.340,0.597,0.565,-,CALM,��
2022/11/12,01:50,0.589,0.855,0.536,1.074,0.756,0.339,0.595,0.564,�쐼,0.6,��
2022/11/12,02:00,0.590,0.856,0.535,1.073,0.756,0.340,0.598,0.563,�쐼,0.9,��
2022/11/12,02:10,0.588,0.856,0.533,1.077,0.757,0.339,0.595,0.563,���쐼,0.8,��
2022/11/12,02:20,0.590,0.856,0.535,1.075,0.756,0.339,0.599,0.564,�쐼,1.2,��
2022/11/12,02:30,0.590,0.855,0.534,1.074,0.757,0.341,0.596,0.565,��쐼,1.2,��
2022/11/12,02:40,0.590,0.853,0.533,1.074,0.755,0.340,0.598,0.563,���쐼,1.2,��
2022/11/12,02:50,0.590,0.856,0.531,1.073,0.756,0.341,0.598,0.564,�쐼,1.2,��
2022/11/12,03:00,0.589,0.855,0.534,1.074,0.756,0.340,0.597,0.563,��쐼,0.9,��
2022/11/12,03:10,0.590,0.854,0.533,1.075,0.755,0.341,0.599,0.563,��쐼,1.1,��
2022/11/12,03:20,0.588,0.853,0.534,1.074,0.755,0.339,0.597,0.564,��쐼,1.2,��
2022/11/12,03:30,0.589,0.855,0.534,1.073,0.753,0.340,0.598,0.564,�쐼,0.9,��
2022/11/12,03:40,0.590,0.855,0.534,1.075,0.753,0.339,0.598,0.563,�쐼,0.9,��
2022/11/12,03:50,0.590,0.857,0.535,1.074,0.757,0.340,0.598,0.563,�쐼,1.4,��
2022/11/12,04:00,0.590,0.856,0.532,1.074,0.756,0.340,0.597,0.564,�쐼,1.1,��
2022/11/12,04:10,0.590,0.854,0.533,1.074,0.755,0.340,0.597,0.564,�쐼,1.4,��
2022/11/12,04:20,0.590,0.855,0.532,1.073,0.756,0.340,0.597,0.564,��쐼,1.9,��
2022/11/12,04:30,0.590,0.853,0.534,1.075,0.755,0.340,0.599,0.563,��쐼,1.9,��
2022/11/12,04:40,0.589,0.854,0.532,1.073,0.755,0.340,0.598,0.564,��쐼,1.7,��
2022/11/12,04:50,0.590,0.855,0.533,1.076,0.754,0.339,0.597,0.560,��쐼,2.0,��
2022/11/12,05:00,0.590,0.853,0.534,1.074,0.753,0.338,0.597,0.564,��,2.3,��
2022/11/12,05:10,0.588,0.855,0.534,1.073,0.753,0.338,0.597,0.563,��,1.1,��
2022/11/12,05:20,0.589,0.856,0.534,1.074,0.754,0.340,0.596,0.563,��,0.6,��
2022/11/12,05:30,0.589,0.854,0.532,1.074,0.755,0.339,0.596,0.563,-,CALM,��
2022/11/12,05:40,0.591,0.854,0.533,1.074,0.752,0.339,0.599,0.564,-,CALM,��
2022/11/12,05:50,0.591,0.853,0.533,1.072,0.755,0.338,0.596,0.564,��,0.6,��
2022/11/12,06:00,0.590,0.854,0.532,1.075,0.755,0.340,0.596,0.562,-,CALM,��
2022/11/12,06:10,0.588,0.854,0.533,1.074,0.753,0.339,0.597,0.563,��,0.9,��
2022/11/12,06:20,0.590,0.854,0.532,1.075,0.754,0.339,0.599,0.563,��쐼,1.7,��
2022/11/12,06:30,0.589,0.853,0.534,1.072,0.755,0.339,0.597,0.564,��쐼,2.0,��
2022/11/12,06:40,0.590,0.852,0.534,1.073,0.757,0.339,0.596,0.563,��쐼,1.7,��
2022/11/12,06:50,0.588,0.854,0.533,1.074,0.754,0.339,0.597,0.562,��쐼,1.4,��
2022/11/12,07:00,0.590,0.853,0.532,1.076,0.756,0.340,0.596,0.564,��쐼,2.0,��
2022/11/12,07:10,0.589,0.854,0.532,1.075,0.753,0.340,0.596,0.563,��쐼,1.5,��
2022/11/12,07:20,0.589,0.854,0.533,1.074,0.754,0.339,0.598,0.562,��쐼,1.5,��
2022/11/12,07:30,0.588,0.854,0.532,1.075,0.753,0.338,0.598,0.563,��쐼,0.6,��
2022/11/12,07:40,0.588,0.853,0.532,1.073,0.755,0.339,0.597,0.565,��쐼,1.1,��
2022/11/12,07:50,0.590,0.854,0.533,1.075,0.753,0.338,0.598,0.562,��,0.9,��
2022/11/12,08:00,0.590,0.854,0.533,1.075,0.755,0.338,0.598,0.562,��,1.2,��
2022/11/12,08:10,0.590,0.854,0.534,1.073,0.755,0.340,0.598,0.564,��,0.8,��
2022/11/12,08:20,0.589,0.854,0.534,1.075,0.754,0.340,0.598,0.564,��쐼,1.1,��
2022/11/12,08:30,0.590,0.856,0.533,1.074,0.755,0.341,0.597,0.563,��,1.7,��
2022/11/12,08:40,0.591,0.853,0.533,1.074,0.754,0.340,0.599,0.565,��,1.7,��
2022/11/12,08:50,0.591,0.852,0.532,1.075,0.756,0.338,0.596,0.563,��쐼,2.0,��
2022/11/12,09:00,0.591,0.854,0.533,1.076,0.756,0.341,0.596,0.565,��,2.2,��
2022/11/12,09:10,0.591,0.852,0.535,1.072,0.756,0.339,0.598,0.565,��쓌,1.5,��
2022/11/12,09:20,0.589,0.855,0.534,1.077,0.756,0.340,0.596,0.565,��쓌,2.5,��
2022/11/12,09:30,0.591,0.853,0.536,1.073,0.756,0.341,0.597,0.564,��,4.3,��
2022/11/12,09:40,0.591,0.854,0.534,1.075,0.755,0.339,0.598,0.565,��,4.5,��
2022/11/12,09:50,0.590,0.853,0.535,1.074,0.754,0.339,0.597,0.564,��쓌,6.8,��
2022/11/12,10:00,0.592,0.853,0.534,1.076,0.754,0.338,0.598,0.564,��,6.7,��
2022/11/12,10:10,0.591,0.853,0.535,1.074,0.755,0.338,0.598,0.566,��,6.7,��
2022/11/12,10:20,0.589,0.854,0.534,1.076,0.752,0.339,0.597,0.565,��쓌,6.1,��
2022/11/12,10:30,0.593,0.855,0.532,1.075,0.753,0.338,0.599,0.565,��쓌,8.6,��
2022/11/12,10:40,0.592,0.854,0.532,1.076,0.753,0.339,0.599,0.565,��쓌,7.7,��
2022/11/12,10:50,0.592,0.853,0.533,1.076,0.754,0.338,0.598,0.565,��쓌,6.4,��
2022/11/12,11:00,0.592,0.853,0.531,1.075,0.756,0.340,0.597,0.566,��,6.8,��
2022/11/12,11:10,0.591,0.854,0.533,1.075,0.754,0.339,0.597,0.562,��,5.6,��
2022/11/12,11:20,0.592,0.855,0.533,1.075,0.756,0.339,0.597,0.566,��쓌,7.3,��
2022/11/12,11:30,0.591,0.854,0.532,1.076,0.754,0.339,0.597,0.563,��,7.9,��
2022/11/12,11:40,0.592,0.855,0.533,1.075,0.754,0.339,0.598,0.564,��,7.4,��
2022/11/12,11:50,0.591,0.856,0.534,1.074,0.756,0.340,0.598,0.565,��,9.0,��
2022/11/12,12:00,0.593,0.854,0.533,1.075,0.756,0.340,0.598,0.562,��,9.7,��
2022/11/12,12:10,0.592,0.855,0.534,1.076,0.758,0.340,0.599,0.561,��,8.5,��
2022/11/12,12:20,0.592,0.855,0.533,1.075,0.756,0.339,0.599,0.562,��,7.9,��
2022/11/12,12:30,0.593,0.854,0.534,1.076,0.755,0.341,0.598,0.564,��,7.4,��
2022/11/12,12:40,0.593,0.854,0.535,1.077,0.757,0.339,0.598,0.562,��,7.2,��
2022/11/12,12:50,0.593,0.856,0.534,1.076,0.756,0.339,0.598,0.563,��,7.5,��
2022/11/12,13:00,0.592,0.854,0.534,1.074,0.757,0.338,0.598,0.564,��쐼,6.3,��
2022/11/12,13:10,0.593,0.855,0.533,1.079,0.754,0.339,0.599,0.562,��,6.4,��
2022/11/12,13:20,0.593,0.856,0.534,1.077,0.755,0.340,0.598,0.563,��,8.0,��
2022/11/12,13:30,0.594,0.856,0.533,1.075,0.756,0.340,0.598,0.563,��쐼,7.5,��
2022/11/12,13:40,0.594,0.855,0.534,1.077,0.756,0.340,0.598,0.562,��쐼,6.1,��
2022/11/12,13:50,0.593,0.857,0.532,1.077,0.756,0.340,0.599,0.562,��쐼,5.4,��
2022/11/12,14:00,0.593,0.855,0.534,1.076,0.755,0.339,0.600,0.564,��쐼,5.6,��
2022/11/12,14:10,0.594,0.854,0.534,1.076,0.755,0.339,0.599,0.562,��,6.4,��
2022/11/12,14:20,0.591,0.854,0.535,1.077,0.754,0.340,0.598,0.563,��쓌,7.0,��
2022/11/12,14:30,0.592,0.855,0.533,1.079,0.756,0.339,0.599,0.563,��쓌,8.3,��
2022/11/12,14:40,0.594,0.855,0.534,1.077,0.756,0.339,0.598,0.563,��,9.4,��
2022/11/12,14:50,0.593,0.854,0.533,1.077,0.756,0.338,0.598,0.562,��,7.1,��
2022/11/12,15:00,0.591,0.854,0.533,1.077,0.755,0.340,0.601,0.562,��,7.3,��
2022/11/12,15:10,0.592,0.853,0.533,1.078,0.756,0.340,0.598,0.563,��쓌,6.7,��
2022/11/12,15:20,0.591,0.853,0.532,1.076,0.754,0.340,0.599,0.561,��,5.8,��
2022/11/12,15:30,0.593,0.856,0.535,1.077,0.755,0.337,0.598,0.561,��,5.9,��
2022/11/12,15:40,0.594,0.855,0.534,1.078,0.755,0.339,0.598,0.563,��,5.8,��
2022/11/12,15:50,0.591,0.855,0.531,1.076,0.756,0.339,0.597,0.563,��,5.8,��
2022/11/12,16:00,0.592,0.852,0.534,1.076,0.756,0.340,0.598,0.562,��,5.9,��
2022/11/12,16:10,0.592,0.856,0.532,1.077,0.756,0.339,0.598,0.563,��쐼,5.1,��
2022/11/12,16:20,0.592,0.857,0.532,1.076,0.754,0.340,0.599,0.563,��,5.6,��
2022/11/12,16:30,0.591,0.856,0.533,1.075,0.753,0.341,0.599,0.564,��쐼,5.7,��
2022/11/12,16:40,0.591,0.857,0.533,1.076,0.755,0.341,0.601,0.565,��쐼,5.6,��
2022/11/12,16:50,0.591,0.857,0.535,1.076,0.755,0.339,0.598,0.565,��쐼,4.7,��
2022/11/12,17:00,0.592,0.861,0.536,1.074,0.757,0.341,0.600,0.564,��쐼,5.0,��
2022/11/12,17:10,0.592,0.856,0.534,1.075,0.757,0.340,0.599,0.564,��쐼,4.8,��
2022/11/12,17:20,0.591,0.858,0.534,1.075,0.758,0.341,0.600,0.565,��쐼,4.9,��
2022/11/12,17:30,0.592,0.856,0.538,1.075,0.757,0.341,0.598,0.564,��쐼,5.6,��
2022/11/12,17:40,0.592,0.858,0.535,1.076,0.758,0.342,0.601,0.564,��쐼,6.4,��
2022/11/12,17:50,0.593,0.858,0.536,1.076,0.756,0.341,0.600,0.566,��,7.2,��
2022/11/12,18:00,0.595,0.858,0.537,1.076,0.757,0.340,0.599,0.564,��쐼,5.6,��
2022/11/12,18:10,0.594,0.858,0.535,1.076,0.757,0.341,0.600,0.565,��쐼,5.1,��
2022/11/12,18:20,0.592,0.855,0.533,1.075,0.758,0.340,0.601,0.564,��쐼,5.2,��
2022/11/12,18:30,0.594,0.856,0.535,1.075,0.760,0.341,0.599,0.564,��쐼,4.8,��
2022/11/12,18:40,0.593,0.856,0.534,1.075,0.758,0.341,0.599,0.562,��쐼,5.0,��
2022/11/12,18:50,0.593,0.858,0.535,1.076,0.757,0.340,0.600,0.565,��쐼,5.9,��
2022/11/12,19:00,0.594,0.857,0.535,1.077,0.757,0.340,0.599,0.564,��쐼,5.5,��
2022/11/12,19:10,0.592,0.859,0.535,1.074,0.756,0.342,0.600,0.565,��쐼,4.9,��
2022/11/12,19:20,0.594,0.857,0.535,1.075,0.759,0.340,0.598,0.564,��쐼,5.4,��
2022/11/12,19:30,0.592,0.857,0.534,1.077,0.756,0.340,0.598,0.562,��쐼,4.4,��
2022/11/12,19:40,0.594,0.858,0.535,1.078,0.756,0.341,0.600,0.564,��쐼,3.4,��
2022/11/12,19:50,0.593,0.857,0.536,1.074,0.757,0.340,0.599,0.562,��,3.7,��
2022/11/12,20:00,0.593,0.856,0.534,1.075,0.757,0.340,0.599,0.565,��쐼,4.5,��
2022/11/12,20:10,0.594,0.856,0.534,1.076,0.756,0.340,0.599,0.565,��쐼,3.8,��
2022/11/12,20:20,0.592,0.855,0.536,1.076,0.755,0.341,0.597,0.564,��,4.6,��
2022/11/12,20:30,0.593,0.854,0.535,1.074,0.758,0.341,0.599,0.564,��,5.5,��
2022/11/12,20:40,0.593,0.857,0.534,1.075,0.756,0.341,0.599,0.564,��,5.5,��
2022/11/12,20:50,0.592,0.856,0.534,1.076,0.757,0.340,0.598,0.562,��,5.5,��
2022/11/12,21:00,0.591,0.856,0.535,1.073,0.756,0.340,0.598,0.564,��쐼,6.3,��
2022/11/12,21:10,0.592,0.856,0.533,1.075,0.757,0.341,0.599,0.565,��,5.2,��
2022/11/12,21:20,0.593,0.856,0.534,1.076,0.757,0.341,0.600,0.563,��,4.5,��
2022/11/12,21:30,0.591,0.856,0.535,1.075,0.754,0.341,0.597,0.564,��,4.2,��
2022/11/12,21:40,0.594,0.856,0.535,1.077,0.756,0.340,0.600,0.565,��,3.2,��
2022/11/12,21:50,0.592,0.857,0.535,1.075,0.755,0.339,0.599,0.564,��,4.6,��
2022/11/12,22:00,0.594,0.855,0.536,1.076,0.755,0.341,0.599,0.564,��,5.5,��
2022/11/12,22:10,0.592,0.856,0.534,1.076,0.756,0.341,0.599,0.564,��,5.2,��
2022/11/12,22:20,0.593,0.856,0.535,1.075,0.756,0.340,0.600,0.563,��,4.5,��
2022/11/12,22:30,0.592,0.856,0.534,1.076,0.758,0.340,0.599,0.564,��,4.5,��
2022/11/12,22:40,0.591,0.856,0.534,1.073,0.758,0.341,0.597,0.564,��쐼,4.2,��
2022/11/12,22:50,0.593,0.855,0.535,1.074,0.755,0.340,0.598,0.565,��,4.8,��
2022/11/12,23:00,0.592,0.857,0.534,1.076,0.756,0.339,0.598,0.564,��,3.9,��
2022/11/12,23:10,0.591,0.855,0.535,1.074,0.756,0.340,0.598,0.565,��,4.6,��
2022/11/12,23:20,0.592,0.854,0.535,1.074,0.756,0.340,0.597,0.564,��,4.6,��
2022/11/12,23:30,0.594,0.856,0.534,1.075,0.757,0.342,0.599,0.564,��,4.6,��
2022/11/12,23:40,0.592,0.855,0.536,1.077,0.756,0.341,0.598,0.564,��,4.5,��
2022/11/12,23:50,0.592,0.855,0.534,1.074,0.757,0.340,0.597,0.564,��쐼,5.8,��
